Back to catalog

METEOR 2-8 DEB

AlivePO
NORAD 36342·DEBRIS·🇷🇺 Russia

Launched Mar 25, 1982 from Plesetsk Cosmodrome

Loading…

Next Passes (next 24 hours)

TLE

FreshSource: Space-Track

Epoch: Sep 14, 2026, 02:41 UTC

1 36342U 82025AC  26257.11219060  .00001788  00000-0  84812-3 0  9997
2 36342  82.5308 186.2273 0028116 343.0884  16.9355 14.18892409679099

Track METEOR 2-8 DEB in real time with AllMySat

Download on the App Store